Location: Corralito
(14.1667°N, 87.1833°W)
Time: 21:50:03
(UTC+00:00)

Nadezhda 4 Rocket - Pass Details

Date: 05 October 2020
Orbit: 949 x 992 km, 82.9° (Epoch: 26 October)

Event Time Altitude Azimuth Distance (km) Brightness Sun altitude
Rises 11:06:56 0° 142° (SE) 3,657 7.7 -8.5°
Reaches altitude 10° 11:10:52 10° 118° (ESE) 2,701 7.5 -7.5°
Maximum altitude 11:13:48 14° 89° (E) 2,425 7.7 -6.8°
Drops below altitude 10° 11:16:44 10° 60° (ENE) 2,688 7.3 -6.1°
Sets 11:20:35 0° 36° (NE) 3,626 7.5 -5.2°
